This demonstration page uses our WeatherBlox Daily Observations layout. Learn more.

Left ArrowRight Arrow

Hourly Observations for November 16, 2021

Temp ( °F °C ) Dew Point ( °F °C ) Humidity (%) Winds ( mph kmh ) Pressure ( in mb ) Visibility ( mi km ) Precip ( " mm )
12:53 am 00:53 Clear 52 11.1 35 1.7 53 53 SW 30 48 29.23 990 10 16 0.00 0.00
1:53 am 01:53 Clear 50 10 34 1.1 54 54 WSW 30 48 29.26 991 10 16 0.00 0.00
2:53 am 02:53 Clear 46 7.8 19 -7.2 34 34 W 38 61 29.36 994 10 16 0.00 0.00
3:53 am 03:53 Clear 43 6.1 12 -11.1 28 28 W 36 57 29.43 997 10 16 0.00 0.00
4:53 am 04:53 Clear 41 5 13 -10.6 32 32 WSW 39 63 29.48 998 10 16 0.00 0.00
5:53 am 05:53 Cloudy 41 5 16 -8.9 36 36 W 36 57 29.54 1000 10 16 0.00 0.00
6:53 am 06:53 Cloudy 40 4.4 15 -9.4 36 36 W 36 57 29.57 1001 10 16 0.00 0.00
7:53 am 07:53 Windy with Snow Likely 37 2.8 28 -2.2 70 70 WNW 29 46 29.63 1004 8 13 0.00 0.00
8:53 am 08:53 Windy with Snow Likely 35 1.7 30 -1.1 82 82 W 25 41 29.68 1005 7 11 0.00 0.00
9:53 am 09:53 Cloudy 35 1.7 28 -2.2 76 76 W 29 46 29.73 1007 10 16 0.00 0.00
10:26 am 10:26 Cloudy 35 1.7 26 -3.3 70 70 WNW 31 50 29.81 1010 10 16 0.00 0.00
10:53 am 10:53 Cloudy 35 1.7 26 -3.3 70 70 W 28 44 29.78 1009 10 16 0.00 0.00
11:17 am 11:17 Cloudy 34 1.1 25 -3.9 70 70 W 35 56 29.86 1011 10 16 0.00 0.00
11:53 am 11:53 Cloudy 34 1.1 24 -4.4 67 67 WNW 26 43 29.80 1009 10 16 0.00 0.00
12:53 pm 12:53 Cloudy 34 1.1 22 -5.6 61 61 WNW 39 63 29.83 1010 10 16 0.00 0.00
1:53 pm 13:53 Cloudy 34 1.1 21 -6.1 59 59 WNW 28 44 29.86 1011 10 16 0.00 0.00
2:53 pm 14:53 Partly Cloudy 34 1.1 20 -6.7 56 56 WNW 35 56 29.90 1012 10 16 0.00 0.00
3:53 pm 15:53 Sunny 32 0 22 -5.6 66 66 WNW 29 46 29.95 1014 10 16 0.00 0.00
4:53 pm 16:53 Mostly Clear 31 -0.6 21 -6.1 67 67 WNW 28 44 29.99 1016 10 16 0.00 0.00
5:53 pm 17:53 Clear 31 -0.6 19 -7.2 61 61 WNW 30 48 30.02 1017 10 16 0.00 0.00
6:53 pm 18:53 Clear 29 -1.7 20 -6.7 69 69 WNW 37 59 30.05 1018 10 16 0.00 0.00
7:53 pm 19:53 Mostly Cloudy 28 -2.2 21 -6.1 75 75 NW 23 37 30.10 1019 10 16 0.00 0.00
8:53 pm 20:53 Mostly Cloudy 27 -2.8 21 -6.1 78 78 NW 26 43 30.14 1021 10 16 0.00 0.00
9:12 pm 21:12 Partly Cloudy 28 -2.2 20 -6.7 72 72 NW 25 41 30.19 1022 10 16 0.00 0.00
9:31 pm 21:31 Mostly Cloudy 27 -2.8 21 -6.1 78 78 NW 23 37 30.21 1023 10 16 0.00 0.00
9:53 pm 21:53 Partly Cloudy 27 -2.8 21 -6.1 78 78 WNW 23 37 30.17 1022 10 16 0.00 0.00
10:53 pm 22:53 Clear 27 -2.8 19 -7.2 72 72 NW 23 37 30.19 1022 10 16 0.00 0.00
11:53 pm 23:53 Clear 26 -3.3 14 -10 60 60 NW 23 37 30.24 1024 10 16 0.00 0.00

Powered by AerisWeather